Year,Month,Day,Hour,Minute,Value (Times are PST for temperature in C)
2012,09,18,00,00,19.10
2012,09,18,00,01,19.00
2012,09,18,00,02,18.80
2012,09,18,00,03,18.70
2012,09,18,00,04,18.50
2012,09,18,00,05,18.40
2012,09,18,00,06,18.30
2012,09,18,00,07,18.20
2012,09,18,00,08,18.10
2012,09,18,00,09,18.00
2012,09,18,00,10,17.90
2012,09,18,00,11,17.90
2012,09,18,00,12,17.90
2012,09,18,00,13,17.80
2012,09,18,00,14,17.70
2012,09,18,00,15,17.70
2012,09,18,00,16,17.60
2012,09,18,00,17,17.60
2012,09,18,00,18,17.50
2012,09,18,00,19,17.40
2012,09,18,00,20,17.40
2012,09,18,00,21,17.30
2012,09,18,00,22,17.20
2012,09,18,00,23,17.20
2012,09,18,00,24,17.10
2012,09,18,00,25,17.00
2012,09,18,00,26,17.00
2012,09,18,00,27,17.00
2012,09,18,00,28,17.00
2012,09,18,00,29,17.00
2012,09,18,00,30,17.00
2012,09,18,00,31,17.00
2012,09,18,00,32,17.00
2012,09,18,00,33,17.00
2012,09,18,00,34,17.10
2012,09,18,00,35,17.00
2012,09,18,00,36,17.00
2012,09,18,00,37,17.00
2012,09,18,00,38,17.00
2012,09,18,00,39,17.00
2012,09,18,00,40,17.00
2012,09,18,00,41,17.00
2012,09,18,00,42,17.00
2012,09,18,00,43,17.00
2012,09,18,00,44,16.90
2012,09,18,00,45,16.90
2012,09,18,00,46,16.80
2012,09,18,00,47,16.70
2012,09,18,00,48,16.70
2012,09,18,00,49,16.70
2012,09,18,00,50,16.70
2012,09,18,00,51,16.60
2012,09,18,00,52,16.60
2012,09,18,00,53,16.60
2012,09,18,00,54,16.60
2012,09,18,00,55,16.50
2012,09,18,00,56,16.40
2012,09,18,00,57,16.40
2012,09,18,00,58,16.40
2012,09,18,00,59,16.40
2012,09,18,01,00,16.40
2012,09,18,01,01,16.40
2012,09,18,01,02,16.30
2012,09,18,01,03,16.30
2012,09,18,01,04,16.30
2012,09,18,01,05,16.20
2012,09,18,01,06,16.20
2012,09,18,01,07,16.20
2012,09,18,01,08,16.30
2012,09,18,01,09,16.30
2012,09,18,01,10,16.30
2012,09,18,01,11,16.30
2012,09,18,01,12,16.30
2012,09,18,01,13,16.30
2012,09,18,01,14,16.30
2012,09,18,01,15,16.30
2012,09,18,01,16,16.40
2012,09,18,01,17,16.40
2012,09,18,01,18,16.60
2012,09,18,01,19,16.70
2012,09,18,01,20,17.00
2012,09,18,01,21,17.20
2012,09,18,01,22,17.40
2012,09,18,01,23,17.60
2012,09,18,01,24,17.70
2012,09,18,01,25,17.90
2012,09,18,01,26,18.00
2012,09,18,01,27,18.10
2012,09,18,01,28,18.20
2012,09,18,01,29,18.20
2012,09,18,01,30,18.20
2012,09,18,01,31,18.20
2012,09,18,01,32,18.10
2012,09,18,01,33,18.00
2012,09,18,01,34,17.90
2012,09,18,01,35,17.90
2012,09,18,01,36,17.90
2012,09,18,01,37,17.80
2012,09,18,01,38,17.80
2012,09,18,01,39,17.70
2012,09,18,01,40,17.70
2012,09,18,01,41,17.60
2012,09,18,01,42,17.60
2012,09,18,01,43,17.50
2012,09,18,01,44,17.50
2012,09,18,01,45,17.40
2012,09,18,01,46,17.40
2012,09,18,01,47,17.30
2012,09,18,01,48,17.30
2012,09,18,01,49,17.30
2012,09,18,01,50,17.30
2012,09,18,01,51,17.30
2012,09,18,01,52,17.30
2012,09,18,01,53,17.30
2012,09,18,01,54,17.30
2012,09,18,01,55,17.30
2012,09,18,01,56,17.30
2012,09,18,01,57,17.30
2012,09,18,01,58,17.30
2012,09,18,01,59,17.30
2012,09,18,02,00,17.30
2012,09,18,02,01,17.40
2012,09,18,02,02,17.40
2012,09,18,02,03,17.40
2012,09,18,02,04,17.40
2012,09,18,02,05,17.40
2012,09,18,02,06,17.40
2012,09,18,02,07,17.40
2012,09,18,02,08,17.50
2012,09,18,02,09,17.50
2012,09,18,02,10,17.50
2012,09,18,02,11,17.50
2012,09,18,02,12,17.50
2012,09,18,02,13,17.60
2012,09,18,02,14,17.60
2012,09,18,02,15,17.60
2012,09,18,02,16,17.60
2012,09,18,02,17,17.60
2012,09,18,02,18,17.70
2012,09,18,02,19,17.70
2012,09,18,02,20,17.70
2012,09,18,02,21,17.70
2012,09,18,02,22,17.70
2012,09,18,02,23,17.70
2012,09,18,02,24,17.70
2012,09,18,02,25,17.60
2012,09,18,02,26,17.60
2012,09,18,02,27,17.50
2012,09,18,02,28,17.40
2012,09,18,02,29,17.40
2012,09,18,02,30,17.30
2012,09,18,02,31,17.20
2012,09,18,02,32,17.10
2012,09,18,02,33,17.00
2012,09,18,02,34,16.90
2012,09,18,02,35,16.70
2012,09,18,02,36,16.60
2012,09,18,02,37,16.50
2012,09,18,02,38,16.40
2012,09,18,02,39,16.30
2012,09,18,02,40,16.30
2012,09,18,02,41,16.20
2012,09,18,02,42,16.10
2012,09,18,02,43,16.00
2012,09,18,02,44,15.90
2012,09,18,02,45,15.90
2012,09,18,02,46,15.80
2012,09,18,02,47,15.80
2012,09,18,02,48,15.80
2012,09,18,02,49,15.80
2012,09,18,02,50,15.70
2012,09,18,02,51,15.70
2012,09,18,02,52,15.70
2012,09,18,02,53,15.70
2012,09,18,02,54,15.60
2012,09,18,02,55,15.60
2012,09,18,02,56,15.60
2012,09,18,02,57,15.60
2012,09,18,02,58,15.50
2012,09,18,02,59,15.50
2012,09,18,03,00,15.50
2012,09,18,03,01,15.50
2012,09,18,03,02,15.50
2012,09,18,03,03,15.40
2012,09,18,03,04,15.40
2012,09,18,03,05,15.40
2012,09,18,03,06,15.30
2012,09,18,03,07,15.30
2012,09,18,03,08,15.30
2012,09,18,03,09,15.30
2012,09,18,03,10,15.30
2012,09,18,03,11,15.40
2012,09,18,03,12,15.40
2012,09,18,03,13,15.40
2012,09,18,03,14,15.40
2012,09,18,03,15,15.40
2012,09,18,03,16,15.50
2012,09,18,03,17,15.50
2012,09,18,03,18,15.50
2012,09,18,03,19,15.50
2012,09,18,03,20,15.60
2012,09,18,03,21,15.60
2012,09,18,03,22,15.70
2012,09,18,03,23,15.70
2012,09,18,03,24,15.70
2012,09,18,03,25,15.70
2012,09,18,03,26,15.70
2012,09,18,03,27,15.70
2012,09,18,03,28,15.70
2012,09,18,03,29,15.70
2012,09,18,03,30,15.70
2012,09,18,03,31,15.70
2012,09,18,03,32,15.80
2012,09,18,03,33,15.80
2012,09,18,03,34,15.80
2012,09,18,03,35,15.80
2012,09,18,03,36,15.80
2012,09,18,03,37,15.80
2012,09,18,03,38,15.80
2012,09,18,03,39,15.80
2012,09,18,03,40,15.80
2012,09,18,03,41,15.80
2012,09,18,03,42,15.80
2012,09,18,03,43,15.80
2012,09,18,03,44,15.80
2012,09,18,03,45,15.80
2012,09,18,03,46,15.80
2012,09,18,03,47,15.70
2012,09,18,03,48,15.70
2012,09,18,03,49,15.70
2012,09,18,03,50,15.60
2012,09,18,03,51,15.60
2012,09,18,03,52,15.60
2012,09,18,03,53,15.50
2012,09,18,03,54,15.50
2012,09,18,03,55,15.50
2012,09,18,03,56,15.40
2012,09,18,03,57,15.40
2012,09,18,03,58,15.30
2012,09,18,03,59,15.30
2012,09,18,04,00,15.30
2012,09,18,04,01,15.30
2012,09,18,04,02,15.30
2012,09,18,04,03,15.30
2012,09,18,04,04,15.40
2012,09,18,04,05,15.40
2012,09,18,04,06,15.40
2012,09,18,04,07,15.40
2012,09,18,04,08,15.50
2012,09,18,04,09,15.50
2012,09,18,04,10,15.50
2012,09,18,04,11,15.50
2012,09,18,04,12,15.50
2012,09,18,04,13,15.50
2012,09,18,04,14,15.50
2012,09,18,04,15,15.60
2012,09,18,04,16,15.60
2012,09,18,04,17,15.60
2012,09,18,04,18,15.60
2012,09,18,04,19,15.60
2012,09,18,04,20,15.60
2012,09,18,04,21,15.60
2012,09,18,04,22,15.60
2012,09,18,04,23,15.70
2012,09,18,04,24,15.80
2012,09,18,04,25,15.80
2012,09,18,04,26,15.80
2012,09,18,04,27,15.80
2012,09,18,04,28,15.90
2012,09,18,04,29,15.90
2012,09,18,04,30,16.00
2012,09,18,04,31,16.10
2012,09,18,04,32,16.10
2012,09,18,04,33,16.10
2012,09,18,04,34,16.10
2012,09,18,04,35,16.10
2012,09,18,04,36,16.10
2012,09,18,04,37,16.10
2012,09,18,04,38,16.10
2012,09,18,04,39,16.10
2012,09,18,04,40,16.10
2012,09,18,04,41,16.10
2012,09,18,04,42,16.10
2012,09,18,04,43,16.10
2012,09,18,04,44,16.00
2012,09,18,04,45,15.90
2012,09,18,04,46,15.90
2012,09,18,04,47,15.90
2012,09,18,04,48,15.90
2012,09,18,04,49,15.90
2012,09,18,04,50,15.90
2012,09,18,04,51,16.00
2012,09,18,04,52,16.10
2012,09,18,04,53,16.10
2012,09,18,04,54,16.10
2012,09,18,04,55,16.10
2012,09,18,04,56,16.20
2012,09,18,04,57,16.20
2012,09,18,04,58,16.30
2012,09,18,04,59,16.30
2012,09,18,05,00,16.40
2012,09,18,05,01,16.40
2012,09,18,05,02,16.40
2012,09,18,05,03,16.50
2012,09,18,05,04,16.60
2012,09,18,05,05,16.60
2012,09,18,05,06,16.60
2012,09,18,05,07,16.60
2012,09,18,05,08,16.60
2012,09,18,05,09,16.60
2012,09,18,05,10,16.70
2012,09,18,05,11,16.70
2012,09,18,05,12,16.70
2012,09,18,05,13,16.70
2012,09,18,05,14,16.70
2012,09,18,05,15,16.70
2012,09,18,05,16,16.70
2012,09,18,05,17,16.70
2012,09,18,05,18,16.70
2012,09,18,05,19,16.70
2012,09,18,05,20,16.70
2012,09,18,05,21,16.70
2012,09,18,05,22,16.70
2012,09,18,05,23,16.80
2012,09,18,05,24,16.80
2012,09,18,05,25,16.80
2012,09,18,05,26,16.90
2012,09,18,05,27,16.90
2012,09,18,05,28,16.90
2012,09,18,05,29,16.90
2012,09,18,05,30,16.90
2012,09,18,05,31,16.90
2012,09,18,05,32,16.90
2012,09,18,05,33,16.90
2012,09,18,05,34,16.80
2012,09,18,05,35,16.80
2012,09,18,05,36,16.80
2012,09,18,05,37,16.70
2012,09,18,05,38,16.70
2012,09,18,05,39,16.70
2012,09,18,05,40,16.70
2012,09,18,05,41,16.70
2012,09,18,05,42,16.60
2012,09,18,05,43,16.60
2012,09,18,05,44,16.40
2012,09,18,05,45,16.40
2012,09,18,05,46,16.40
2012,09,18,05,47,16.40
2012,09,18,05,48,16.30
2012,09,18,05,49,16.30
2012,09,18,05,50,16.20
2012,09,18,05,51,16.20
2012,09,18,05,52,16.10
2012,09,18,05,53,16.10
2012,09,18,05,54,16.10
2012,09,18,05,55,16.10
2012,09,18,05,56,16.10
2012,09,18,05,57,16.00
2012,09,18,05,58,15.90
2012,09,18,05,59,15.90
2012,09,18,06,00,15.90
2012,09,18,06,01,15.80
2012,09,18,06,02,15.80
2012,09,18,06,03,15.80
2012,09,18,06,04,15.70
2012,09,18,06,05,15.70
2012,09,18,06,06,15.60
2012,09,18,06,07,15.60
2012,09,18,06,08,15.50
2012,09,18,06,09,15.50
2012,09,18,06,10,15.50
2012,09,18,06,11,15.40
2012,09,18,06,12,15.40
2012,09,18,06,13,15.30
2012,09,18,06,14,15.30
2012,09,18,06,15,15.30
2012,09,18,06,16,15.20
2012,09,18,06,17,15.20
2012,09,18,06,18,15.10
2012,09,18,06,19,15.10
2012,09,18,06,20,15.00
2012,09,18,06,21,14.90
2012,09,18,06,22,14.90
2012,09,18,06,23,14.90
2012,09,18,06,24,14.80
2012,09,18,06,25,14.80
2012,09,18,06,26,14.80
2012,09,18,06,27,14.80
2012,09,18,06,28,14.80
2012,09,18,06,29,14.70
2012,09,18,06,30,14.70
2012,09,18,06,31,14.70
2012,09,18,06,32,14.70
2012,09,18,06,33,14.70
2012,09,18,06,34,14.70
2012,09,18,06,35,14.70
2012,09,18,06,36,14.70
2012,09,18,06,37,14.70
2012,09,18,06,38,14.60
2012,09,18,06,39,14.60
2012,09,18,06,40,14.60
2012,09,18,06,41,14.60
2012,09,18,06,42,14.60
2012,09,18,06,43,14.60
2012,09,18,06,44,14.60
2012,09,18,06,45,14.60
2012,09,18,06,46,14.70
2012,09,18,06,47,14.70
2012,09,18,06,48,14.70
2012,09,18,06,49,14.80
2012,09,18,06,50,14.80
2012,09,18,06,51,14.80
2012,09,18,06,52,14.80
2012,09,18,06,53,14.90
2012,09,18,06,54,14.90
2012,09,18,06,55,14.90
2012,09,18,06,56,15.00
2012,09,18,06,57,15.00
2012,09,18,06,58,15.00
2012,09,18,06,59,15.00
2012,09,18,07,00,15.00
2012,09,18,07,01,15.10
2012,09,18,07,02,15.10
2012,09,18,07,03,15.10
2012,09,18,07,04,15.20
2012,09,18,07,05,15.20
2012,09,18,07,06,15.20
2012,09,18,07,07,15.20
2012,09,18,07,08,15.20
2012,09,18,07,09,15.20
2012,09,18,07,10,15.20
2012,09,18,07,11,15.20
2012,09,18,07,12,15.30
2012,09,18,07,13,15.30
2012,09,18,07,14,15.30
2012,09,18,07,15,15.30
2012,09,18,07,16,15.30
2012,09,18,07,17,15.30
2012,09,18,07,18,15.30
2012,09,18,07,19,15.30
2012,09,18,07,20,15.30
2012,09,18,07,21,15.30
2012,09,18,07,22,15.30
2012,09,18,07,23,15.30
2012,09,18,07,24,15.30
2012,09,18,07,25,15.40
2012,09,18,07,26,15.40
2012,09,18,07,27,15.40
2012,09,18,07,28,15.40
2012,09,18,07,29,15.40
2012,09,18,07,30,15.40
2012,09,18,07,31,15.40
2012,09,18,07,32,15.40
2012,09,18,07,33,15.40
2012,09,18,07,34,15.40
2012,09,18,07,35,15.40
2012,09,18,07,36,15.30
2012,09,18,07,37,15.30
2012,09,18,07,38,15.30
2012,09,18,07,39,15.40
2012,09,18,07,40,15.40
2012,09,18,07,41,15.40
2012,09,18,07,42,15.40
2012,09,18,07,43,15.50
2012,09,18,07,44,15.50
2012,09,18,07,45,15.50
2012,09,18,07,46,15.60
2012,09,18,07,47,15.60
2012,09,18,07,48,15.70
2012,09,18,07,49,15.70
2012,09,18,07,50,15.70
2012,09,18,07,51,15.80
2012,09,18,07,52,15.80
2012,09,18,07,53,15.80
2012,09,18,07,54,15.80
2012,09,18,07,55,15.80
2012,09,18,07,56,15.80
2012,09,18,07,57,15.90
2012,09,18,07,58,15.90
2012,09,18,07,59,16.00
2012,09,18,08,00,16.10
2012,09,18,08,01,16.10
2012,09,18,08,02,16.10
2012,09,18,08,03,16.10
2012,09,18,08,04,16.20
2012,09,18,08,05,16.20
2012,09,18,08,06,16.30
2012,09,18,08,07,16.30
2012,09,18,08,08,16.30
2012,09,18,08,09,16.40
2012,09,18,08,10,16.40
2012,09,18,08,11,16.40
2012,09,18,08,12,16.50
2012,09,18,08,13,16.60
2012,09,18,08,14,16.60
2012,09,18,08,15,16.70
2012,09,18,08,16,16.70
2012,09,18,08,17,16.70
2012,09,18,08,18,16.70
2012,09,18,08,19,16.70
2012,09,18,08,20,16.70
2012,09,18,08,21,16.60
2012,09,18,08,22,16.60
2012,09,18,08,23,16.60
2012,09,18,08,24,16.50
2012,09,18,08,25,16.40
2012,09,18,08,26,16.40
2012,09,18,08,27,16.40
2012,09,18,08,28,16.40
2012,09,18,08,29,16.40
2012,09,18,08,30,16.40
2012,09,18,08,31,16.40
2012,09,18,08,32,16.40
2012,09,18,08,33,16.40
2012,09,18,08,34,16.40
2012,09,18,08,35,16.40
2012,09,18,08,36,16.40
2012,09,18,08,37,16.50
2012,09,18,08,38,16.60
2012,09,18,08,39,16.60
2012,09,18,08,40,16.60
2012,09,18,08,41,16.60
2012,09,18,08,42,16.60
2012,09,18,08,43,16.60
2012,09,18,08,44,16.60
2012,09,18,08,45,16.60
2012,09,18,08,46,16.50
2012,09,18,08,47,16.40
2012,09,18,08,48,16.40
2012,09,18,08,49,16.40
2012,09,18,08,50,16.40
2012,09,18,08,51,16.40
2012,09,18,08,52,16.40
2012,09,18,08,53,16.40
2012,09,18,08,54,16.40
2012,09,18,08,55,16.40
2012,09,18,08,56,16.40
2012,09,18,08,57,16.40
2012,09,18,08,58,16.40
2012,09,18,08,59,16.30
2012,09,18,09,00,16.30
2012,09,18,09,01,16.30
2012,09,18,09,02,16.30
2012,09,18,09,03,16.30
2012,09,18,09,04,16.30
2012,09,18,09,05,16.40
2012,09,18,09,06,16.40
2012,09,18,09,07,16.40
2012,09,18,09,08,16.40
2012,09,18,09,09,16.40
2012,09,18,09,10,16.40
2012,09,18,09,11,16.40
2012,09,18,09,12,16.40
2012,09,18,09,13,16.40
2012,09,18,09,14,16.40
2012,09,18,09,15,16.50
2012,09,18,09,16,16.60
2012,09,18,09,17,16.60
2012,09,18,09,18,16.70
2012,09,18,09,19,16.70
2012,09,18,09,20,16.70
2012,09,18,09,21,16.80
2012,09,18,09,22,16.80
2012,09,18,09,23,16.90
2012,09,18,09,24,16.90
2012,09,18,09,25,17.00
2012,09,18,09,26,17.10
2012,09,18,09,27,17.10
2012,09,18,09,28,17.20
2012,09,18,09,29,17.30
2012,09,18,09,30,17.30
2012,09,18,09,31,17.30
2012,09,18,09,32,17.40
2012,09,18,09,33,17.40
2012,09,18,09,34,17.50
2012,09,18,09,35,17.50
2012,09,18,09,36,17.60
2012,09,18,09,37,17.60
2012,09,18,09,38,17.70
2012,09,18,09,39,17.70
2012,09,18,09,40,17.80
2012,09,18,09,41,17.80
2012,09,18,09,42,17.90
2012,09,18,09,43,17.90
2012,09,18,09,44,17.90
2012,09,18,09,45,18.00
2012,09,18,09,46,18.20
2012,09,18,09,47,18.20
2012,09,18,09,48,18.40
2012,09,18,09,49,18.40
2012,09,18,09,50,18.40
2012,09,18,09,51,18.50
2012,09,18,09,52,18.50
2012,09,18,09,53,18.50
2012,09,18,09,54,18.40
2012,09,18,09,55,18.40
2012,09,18,09,56,18.40
2012,09,18,09,57,18.40
2012,09,18,09,58,18.40
2012,09,18,09,59,18.40
2012,09,18,10,00,18.40
2012,09,18,10,01,18.40
2012,09,18,10,02,18.40
2012,09,18,10,03,18.30
2012,09,18,10,04,18.30
2012,09,18,10,05,18.20
2012,09,18,10,06,18.20
2012,09,18,10,07,18.20
2012,09,18,10,08,18.20
2012,09,18,10,09,18.10
2012,09,18,10,10,18.10
2012,09,18,10,11,18.10
2012,09,18,10,12,18.10
2012,09,18,10,13,18.10
2012,09,18,10,14,18.10
2012,09,18,10,15,18.20
2012,09,18,10,16,18.20
2012,09,18,10,17,18.20
2012,09,18,10,18,18.30
2012,09,18,10,19,18.30
2012,09,18,10,20,18.30
2012,09,18,10,21,18.30
2012,09,18,10,22,18.30
2012,09,18,10,23,18.30
2012,09,18,10,24,18.40
2012,09,18,10,25,18.40
2012,09,18,10,26,18.40
2012,09,18,10,27,18.40
2012,09,18,10,28,18.40
2012,09,18,10,29,18.30
2012,09,18,10,30,18.30
2012,09,18,10,31,18.30
2012,09,18,10,32,18.30
2012,09,18,10,33,18.30
2012,09,18,10,34,18.30
2012,09,18,10,35,18.40
2012,09,18,10,36,18.40
2012,09,18,10,37,18.50
2012,09,18,10,38,18.50
2012,09,18,10,39,18.60
2012,09,18,10,40,18.60
2012,09,18,10,41,18.60
2012,09,18,10,42,18.70
2012,09,18,10,43,18.60
2012,09,18,10,44,18.60
2012,09,18,10,45,18.60
2012,09,18,10,46,18.70
2012,09,18,10,47,18.70
2012,09,18,10,48,18.70
2012,09,18,10,49,18.80
2012,09,18,10,50,18.80
2012,09,18,10,51,18.80
2012,09,18,10,52,18.90
2012,09,18,10,53,18.90
2012,09,18,10,54,18.90
2012,09,18,10,55,18.90
2012,09,18,10,56,18.90
2012,09,18,10,57,19.00
2012,09,18,10,58,19.10
2012,09,18,10,59,19.10
2012,09,18,11,00,19.20
2012,09,18,11,01,19.30
2012,09,18,11,02,19.40
2012,09,18,11,03,19.50
2012,09,18,11,04,19.60
2012,09,18,11,05,19.60
2012,09,18,11,06,19.80
2012,09,18,11,07,19.80
2012,09,18,11,08,19.80
2012,09,18,11,09,19.70
2012,09,18,11,10,19.60
2012,09,18,11,11,19.50
2012,09,18,11,12,19.40
2012,09,18,11,13,19.40
2012,09,18,11,14,19.30
2012,09,18,11,15,19.40
2012,09,18,11,16,19.40
2012,09,18,11,17,19.50
2012,09,18,11,18,19.50
2012,09,18,11,19,19.50
2012,09,18,11,20,19.50
2012,09,18,11,21,19.50
2012,09,18,11,22,19.40
2012,09,18,11,23,19.40
2012,09,18,11,24,19.40
2012,09,18,11,25,19.40
2012,09,18,11,26,19.30
2012,09,18,11,27,19.30
2012,09,18,11,28,19.30
2012,09,18,11,29,19.20
2012,09,18,11,30,19.10
2012,09,18,11,31,19.10
2012,09,18,11,32,19.00
2012,09,18,11,33,18.90
2012,09,18,11,34,18.90
2012,09,18,11,35,18.90
2012,09,18,11,36,19.00
2012,09,18,11,37,19.10
2012,09,18,11,38,19.10
2012,09,18,11,39,19.10
2012,09,18,11,40,19.20
2012,09,18,11,41,19.30
2012,09,18,11,42,19.40
2012,09,18,11,43,19.60
2012,09,18,11,44,19.70
2012,09,18,11,45,19.70
2012,09,18,11,46,19.80
2012,09,18,11,47,19.80
2012,09,18,11,48,19.70
2012,09,18,11,49,19.60
2012,09,18,11,50,19.50
2012,09,18,11,51,19.40
2012,09,18,11,52,19.30
2012,09,18,11,53,19.20
2012,09,18,11,54,19.20
2012,09,18,11,55,19.10
2012,09,18,11,56,19.10
2012,09,18,11,57,19.00
2012,09,18,11,58,18.90
2012,09,18,11,59,18.90
2012,09,18,12,00,19.00
2012,09,18,12,01,19.10
2012,09,18,12,02,19.10
2012,09,18,12,03,19.10
2012,09,18,12,04,19.10
2012,09,18,12,05,19.10
2012,09,18,12,06,19.20
2012,09,18,12,07,19.30
2012,09,18,12,08,19.30
2012,09,18,12,09,19.40
2012,09,18,12,10,19.40
2012,09,18,12,11,19.50
2012,09,18,12,12,19.60
2012,09,18,12,13,19.60
2012,09,18,12,14,19.70
2012,09,18,12,15,19.80
2012,09,18,12,16,19.90
2012,09,18,12,17,19.90
2012,09,18,12,18,19.90
2012,09,18,12,19,19.80
2012,09,18,12,20,19.70
2012,09,18,12,21,19.70
2012,09,18,12,22,19.70
2012,09,18,12,23,19.70
2012,09,18,12,24,19.70
2012,09,18,12,25,19.80
2012,09,18,12,26,19.80
2012,09,18,12,27,19.80
2012,09,18,12,28,19.90
2012,09,18,12,29,19.90
2012,09,18,12,30,20.00
2012,09,18,12,31,20.10
2012,09,18,12,32,20.20
2012,09,18,12,33,20.30
2012,09,18,12,34,20.30
2012,09,18,12,35,20.40
2012,09,18,12,36,20.40
2012,09,18,12,37,20.40
2012,09,18,12,38,20.40
2012,09,18,12,39,20.30
2012,09,18,12,40,20.30
2012,09,18,12,41,20.30
2012,09,18,12,42,20.40
2012,09,18,12,43,20.50
2012,09,18,12,44,20.50
2012,09,18,12,45,20.60
2012,09,18,12,46,20.70
2012,09,18,12,47,20.70
2012,09,18,12,48,20.80
2012,09,18,12,49,20.80
2012,09,18,12,50,20.80
2012,09,18,12,51,20.90
2012,09,18,12,52,21.00
2012,09,18,12,53,21.00
2012,09,18,12,54,21.00
2012,09,18,12,55,21.00
2012,09,18,12,56,21.00
2012,09,18,12,57,20.90
2012,09,18,12,58,21.00
2012,09,18,12,59,21.00
2012,09,18,13,00,21.10
2012,09,18,13,01,21.20
2012,09,18,13,02,21.10
2012,09,18,13,03,21.00
2012,09,18,13,04,21.00
2012,09,18,13,05,20.90
2012,09,18,13,06,20.90
2012,09,18,13,07,20.90
2012,09,18,13,08,20.90
2012,09,18,13,09,20.90
2012,09,18,13,10,20.90
2012,09,18,13,11,20.90
2012,09,18,13,12,20.90
2012,09,18,13,13,20.90
2012,09,18,13,14,20.80
2012,09,18,13,15,20.80
2012,09,18,13,16,20.70
2012,09,18,13,17,20.70
2012,09,18,13,18,20.80
2012,09,18,13,19,20.80
2012,09,18,13,20,20.80
2012,09,18,13,21,20.80
2012,09,18,13,22,20.80
2012,09,18,13,23,20.70
2012,09,18,13,24,20.70
2012,09,18,13,25,20.70
2012,09,18,13,26,20.70
2012,09,18,13,27,20.60
2012,09,18,13,28,20.60
2012,09,18,13,29,20.50
2012,09,18,13,30,20.50
2012,09,18,13,31,20.50
2012,09,18,13,32,20.50
2012,09,18,13,33,20.50
2012,09,18,13,34,20.50
2012,09,18,13,35,20.50
2012,09,18,13,36,20.50
2012,09,18,13,37,20.60
2012,09,18,13,38,20.60
2012,09,18,13,39,20.60
2012,09,18,13,40,20.70
2012,09,18,13,41,20.70
2012,09,18,13,42,20.80
2012,09,18,13,43,20.80
2012,09,18,13,44,20.80
2012,09,18,13,45,20.90
2012,09,18,13,46,21.00
2012,09,18,13,47,21.00
2012,09,18,13,48,21.20
2012,09,18,13,49,21.30
2012,09,18,13,50,21.30
2012,09,18,13,51,21.30
2012,09,18,13,52,21.30
2012,09,18,13,53,21.20
2012,09,18,13,54,21.20
2012,09,18,13,55,21.10
2012,09,18,13,56,21.20
2012,09,18,13,57,21.20
2012,09,18,13,58,21.20
2012,09,18,13,59,21.20
2012,09,18,14,00,21.20
2012,09,18,14,01,21.30
2012,09,18,14,02,21.30
2012,09,18,14,03,21.30
2012,09,18,14,04,21.30
2012,09,18,14,05,21.30
2012,09,18,14,06,21.30
2012,09,18,14,07,21.30
2012,09,18,14,08,21.30
2012,09,18,14,09,21.30
2012,09,18,14,10,21.30
2012,09,18,14,11,21.30
2012,09,18,14,12,21.30
2012,09,18,14,13,21.20
2012,09,18,14,14,21.20
2012,09,18,14,15,21.30
2012,09,18,14,16,21.30
2012,09,18,14,17,21.30
2012,09,18,14,18,21.30
2012,09,18,14,19,21.30
2012,09,18,14,20,21.30
2012,09,18,14,21,21.30
2012,09,18,14,22,21.30
2012,09,18,14,23,21.30
2012,09,18,14,24,21.30
2012,09,18,14,25,21.30
2012,09,18,14,26,21.20
2012,09,18,14,27,21.20
2012,09,18,14,28,21.20
2012,09,18,14,29,21.10
2012,09,18,14,30,21.10
2012,09,18,14,31,21.10
2012,09,18,14,32,21.10
2012,09,18,14,33,21.20
2012,09,18,14,34,21.20
2012,09,18,14,35,21.30
2012,09,18,14,36,21.30
2012,09,18,14,37,21.30
2012,09,18,14,38,21.30
2012,09,18,14,39,21.30
2012,09,18,14,40,21.50
2012,09,18,14,41,21.60
2012,09,18,14,42,21.60
2012,09,18,14,43,21.60
2012,09,18,14,44,21.60
2012,09,18,14,45,21.60
2012,09,18,14,46,21.50
2012,09,18,14,47,21.40
2012,09,18,14,48,21.40
2012,09,18,14,49,21.60
2012,09,18,14,50,21.60
2012,09,18,14,51,21.60
2012,09,18,14,52,21.60
2012,09,18,14,53,21.60
2012,09,18,14,54,21.60
2012,09,18,14,55,21.60
2012,09,18,14,56,21.60
2012,09,18,14,57,21.60
2012,09,18,14,58,21.60
2012,09,18,14,59,21.70
2012,09,18,15,00,21.80
2012,09,18,15,01,21.80
2012,09,18,15,02,21.90
2012,09,18,15,03,21.90
2012,09,18,15,04,22.00
2012,09,18,15,05,22.00
2012,09,18,15,06,22.10
2012,09,18,15,07,22.10
2012,09,18,15,08,22.10
2012,09,18,15,09,22.00
2012,09,18,15,10,22.00
2012,09,18,15,11,22.00
2012,09,18,15,12,22.00
2012,09,18,15,13,22.00
2012,09,18,15,14,21.90
2012,09,18,15,15,21.90
2012,09,18,15,16,22.00
2012,09,18,15,17,22.00
2012,09,18,15,18,22.10
2012,09,18,15,19,22.10
2012,09,18,15,20,22.20
2012,09,18,15,21,22.20
2012,09,18,15,22,22.20
2012,09,18,15,23,22.20
2012,09,18,15,24,22.20
2012,09,18,15,25,22.30
2012,09,18,15,26,22.20
2012,09,18,15,27,22.10
2012,09,18,15,28,22.10
2012,09,18,15,29,22.10
2012,09,18,15,30,22.10
2012,09,18,15,31,22.10
2012,09,18,15,32,22.10
2012,09,18,15,33,22.10
2012,09,18,15,34,22.20
2012,09,18,15,35,22.20
2012,09,18,15,36,22.30
2012,09,18,15,37,22.30
2012,09,18,15,38,22.40
2012,09,18,15,39,22.40
2012,09,18,15,40,22.40
2012,09,18,15,41,22.50
2012,09,18,15,42,22.50
2012,09,18,15,43,22.60
2012,09,18,15,44,22.60
2012,09,18,15,45,22.70
2012,09,18,15,46,22.80
2012,09,18,15,47,22.80
2012,09,18,15,48,22.90
2012,09,18,15,49,22.90
2012,09,18,15,50,23.00
2012,09,18,15,51,23.10
2012,09,18,15,52,23.20
2012,09,18,15,53,23.10
2012,09,18,15,54,22.90
2012,09,18,15,55,22.90
2012,09,18,15,56,22.70
2012,09,18,15,57,22.70
2012,09,18,15,58,22.60
2012,09,18,15,59,22.60
2012,09,18,16,00,22.60
2012,09,18,16,01,22.60
2012,09,18,16,02,22.60
2012,09,18,16,03,22.50
2012,09,18,16,04,22.50
2012,09,18,16,05,22.50
2012,09,18,16,06,22.50
2012,09,18,16,07,22.50
2012,09,18,16,08,22.40
2012,09,18,16,09,22.30
2012,09,18,16,10,22.20
2012,09,18,16,11,22.20
2012,09,18,16,12,22.20
2012,09,18,16,13,22.30
2012,09,18,16,14,22.30
2012,09,18,16,15,22.30
2012,09,18,16,16,22.20
2012,09,18,16,17,22.00
2012,09,18,16,18,21.90
2012,09,18,16,19,21.90
2012,09,18,16,20,21.90
2012,09,18,16,21,21.90
2012,09,18,16,22,22.00
2012,09,18,16,23,22.00
2012,09,18,16,24,22.00
2012,09,18,16,25,22.10
2012,09,18,16,26,22.10
2012,09,18,16,27,22.20
2012,09,18,16,28,22.30
2012,09,18,16,29,22.50
2012,09,18,16,30,22.60
2012,09,18,16,31,22.70
2012,09,18,16,32,22.80
2012,09,18,16,33,22.90
2012,09,18,16,34,23.10
2012,09,18,16,35,23.10
2012,09,18,16,36,23.10
2012,09,18,16,37,23.00
2012,09,18,16,38,22.90
2012,09,18,16,39,22.90
2012,09,18,16,40,22.70
2012,09,18,16,41,22.60
2012,09,18,16,42,22.40
2012,09,18,16,43,22.30
2012,09,18,16,44,22.20
2012,09,18,16,45,22.20
2012,09,18,16,46,22.30
2012,09,18,16,47,22.30
2012,09,18,16,48,22.40
2012,09,18,16,49,22.50
2012,09,18,16,50,22.50
2012,09,18,16,51,22.60
2012,09,18,16,52,22.70
2012,09,18,16,53,22.80
2012,09,18,16,54,22.90
2012,09,18,16,55,22.90
2012,09,18,16,56,22.90
2012,09,18,16,57,22.90
2012,09,18,16,58,22.90
2012,09,18,16,59,22.90
2012,09,18,17,00,22.90
2012,09,18,17,01,22.70
2012,09,18,17,02,22.60
2012,09,18,17,03,22.60
2012,09,18,17,04,22.60
2012,09,18,17,05,22.50
2012,09,18,17,06,22.50
2012,09,18,17,07,22.50
2012,09,18,17,08,22.50
2012,09,18,17,09,22.50
2012,09,18,17,10,22.60
2012,09,18,17,11,22.70
2012,09,18,17,12,22.70
2012,09,18,17,13,22.80
2012,09,18,17,14,22.90
2012,09,18,17,15,22.90
2012,09,18,17,16,22.90
2012,09,18,17,17,22.90
2012,09,18,17,18,22.90
2012,09,18,17,19,22.80